Time,TemperatureF,DewpointF,PressureIn,WindDirection,WindDirectionDegrees,WindSpeedMPH,WindSpeedGustMPH,Humidity,HourlyPrecipIn,Conditions,Clouds,dailyrainin,SoftwareType,DateUTC
2013-12-03 00:00:00,30.0,30.0,29.77,ESE,112,1.0,2.0,100,-99.99,,OVC060,0.00,VWS V14.01,2013-12-03 05:00:00,
2013-12-03 00:01:00,32.0,31.8,29.78,ESE,112,0.0,0.0,99,0.00,,---,0.00,VWS V14.01,2013-12-03 05:01:00,
2013-12-03 00:02:00,31.0,30.8,29.78,ESE,112,0.0,0.0,99,0.00,,---,0.00,VWS V14.01,2013-12-03 05:02:00,
2013-12-03 00:07:00,31.0,30.8,29.78,ESE,112,1.0,2.0,99,0.00,,---,0.00,VWS V14.01,2013-12-03 05:07:00,
2013-12-03 00:12:00,31.0,30.8,29.78,ESE,112,0.0,2.0,99,0.00,,---,0.00,VWS V14.01,2013-12-03 05:12:00,
2013-12-03 00:17:00,31.0,30.8,29.78,ESE,112,0.0,2.0,99,0.00,,---,0.00,VWS V14.01,2013-12-03 05:17:00,
2013-12-03 00:22:00,31.0,30.8,29.77,ESE,112,1.0,2.0,99,0.00,,---,0.00,VWS V14.01,2013-12-03 05:22:00,
2013-12-03 00:27:00,31.0,31.0,29.77,ESE,112,1.0,2.0,100,0.00,,---,0.00,VWS V14.01,2013-12-03 05:27:00,
2013-12-03 00:32:00,31.0,31.0,29.77,ESE,112,0.0,2.0,100,0.00,,---,0.00,VWS V14.01,2013-12-03 05:32:00,
2013-12-03 00:37:00,31.0,31.0,29.77,ESE,112,0.0,2.0,100,0.00,,---,0.00,VWS V14.01,2013-12-03 05:37:00,
2013-12-03 00:42:00,31.0,31.0,29.77,ESE,112,0.0,2.0,100,0.00,,---,0.00,VWS V14.01,2013-12-03 05:42:00,
2013-12-03 00:47:00,31.0,31.0,29.77,ESE,112,1.0,2.0,100,0.00,,---,0.00,VWS V14.01,2013-12-03 05:47:00,
2013-12-03 00:52:00,30.0,30.0,29.77,ESE,112,0.0,2.0,100,0.00,,---,0.00,VWS V14.01,2013-12-03 05:52:00,
2013-12-03 00:57:00,30.0,30.0,29.77,ESE,112,0.0,2.0,100,0.00,,---,0.00,VWS V14.01,2013-12-03 05:57:00,
2013-12-03 01:00:00,32.0,31.8,29.76,East,90,3.0,5.0,99,-99.99,,OVC060,0.00,VWS V14.01,2013-12-03 06:00:00,
2013-12-03 01:02:00,30.0,30.0,29.77,ESE,112,2.0,4.0,100,0.00,,---,0.00,VWS V14.01,2013-12-03 06:02:00,
2013-12-03 01:07:00,30.0,30.0,29.77,ESE,112,2.0,4.0,100,0.00,,---,0.00,VWS V14.01,2013-12-03 06:07:00,
2013-12-03 01:12:00,31.0,31.0,29.76,ESE,112,2.0,5.0,100,0.00,,---,0.00,VWS V14.01,2013-12-03 06:12:00,
2013-12-03 01:17:00,31.0,31.0,29.76,ESE,112,1.0,5.0,100,0.00,,---,0.00,VWS V14.01,2013-12-03 06:17:00,
2013-12-03 01:22:00,31.0,31.0,29.76,SE,135,2.0,5.0,100,0.00,,---,0.00,VWS V14.01,2013-12-03 06:22:00,
2013-12-03 01:27:00,31.0,31.0,29.76,SE,135,0.0,5.0,100,0.00,,---,0.00,VWS V14.01,2013-12-03 06:27:00,
2013-12-03 01:32:00,31.0,31.0,29.76,ESE,112,3.0,5.0,100,0.00,,---,0.00,VWS V14.01,2013-12-03 06:32:00,
2013-12-03 01:37:00,31.0,31.0,29.76,SE,135,4.0,5.0,100,0.00,,---,0.00,VWS V14.01,2013-12-03 06:37:00,
2013-12-03 01:42:00,31.0,31.0,29.76,SE,135,2.0,5.0,100,0.00,,---,0.00,VWS V14.01,2013-12-03 06:42:00,
2013-12-03 01:47:00,32.0,31.8,29.76,East,90,1.0,5.0,99,0.00,,---,0.00,VWS V14.01,2013-12-03 06:47:00,
2013-12-03 01:52:00,32.0,31.8,29.76,East,90,2.0,5.0,99,0.00,,---,0.00,VWS V14.01,2013-12-03 06:52:00,
2013-12-03 01:57:00,32.0,31.8,29.76,East,90,2.0,5.0,99,0.00,,---,0.00,VWS V14.01,2013-12-03 06:57:00,
2013-12-03 02:00:00,32.0,31.8,29.77,ESE,112,1.0,5.0,99,-99.99,,OVC060,0.00,VWS V14.01,2013-12-03 07:00:00,
2013-12-03 02:02:00,32.0,31.8,29.76,East,90,2.0,3.0,99,0.00,,---,0.00,VWS V14.01,2013-12-03 07:02:00,
2013-12-03 02:07:00,32.0,31.5,29.76,SE,135,4.0,5.0,98,0.00,,---,0.00,VWS V14.01,2013-12-03 07:07:00,
2013-12-03 02:12:00,32.0,31.5,29.76,ESE,112,2.0,5.0,98,0.00,,---,0.00,VWS V14.01,2013-12-03 07:12:00,
2013-12-03 02:17:00,32.0,31.5,29.76,ESE,112,3.0,5.0,98,0.00,,---,0.00,VWS V14.01,2013-12-03 07:17:00,
2013-12-03 02:22:00,32.0,31.5,29.76,East,90,3.0,5.0,98,0.00,,---,0.00,VWS V14.01,2013-12-03 07:22:00,
2013-12-03 02:27:00,32.0,31.5,29.76,East,90,4.0,5.0,98,0.00,,---,0.00,VWS V14.01,2013-12-03 07:27:00,
2013-12-03 02:32:00,32.0,31.5,29.76,SE,135,0.0,5.0,98,0.00,,---,0.00,VWS V14.01,2013-12-03 07:32:00,
2013-12-03 02:37:00,32.0,31.2,29.76,SE,135,1.0,5.0,97,0.00,,---,0.00,VWS V14.01,2013-12-03 07:37:00,
2013-12-03 02:42:00,32.0,31.2,29.76,SE,135,0.0,5.0,97,0.00,,---,0.00,VWS V14.01,2013-12-03 07:42:00,
2013-12-03 02:47:00,31.0,30.2,29.76,SE,135,1.0,5.0,97,0.00,,---,0.00,VWS V14.01,2013-12-03 07:47:00,
2013-12-03 02:53:00,31.0,30.5,29.77,East,90,1.0,5.0,98,0.00,,---,0.00,VWS V14.01,2013-12-03 07:53:00,
2013-12-03 02:58:00,32.0,31.8,29.77,ESE,112,3.0,5.0,99,0.00,,---,0.00,VWS V14.01,2013-12-03 07:58:00,
2013-12-03 03:00:00,34.0,33.0,29.78,SE,135,3.0,5.0,96,-99.99,,OVC060,0.00,VWS V14.01,2013-12-03 08:00:00,
2013-12-03 03:03:00,32.0,31.8,29.77,ESE,112,3.0,4.0,99,0.00,,---,0.00,VWS V14.01,2013-12-03 08:03:00,
2013-12-03 03:08:00,32.0,31.8,29.78,SE,135,2.0,5.0,99,0.00,,---,0.00,VWS V14.01,2013-12-03 08:08:00,
2013-12-03 03:13:00,32.0,31.8,29.78,SE,135,1.0,5.0,99,0.00,,---,0.00,VWS V14.01,2013-12-03 08:13:00,
2013-12-03 03:18:00,33.0,32.8,29.78,SE,135,2.0,5.0,99,0.00,,---,0.00,VWS V14.01,2013-12-03 08:18:00,
2013-12-03 03:23:00,33.0,32.5,29.78,SE,135,2.0,5.0,98,0.00,,---,0.00,VWS V14.01,2013-12-03 08:23:00,
2013-12-03 03:28:00,33.0,32.5,29.78,ESE,112,1.0,5.0,98,0.00,,---,0.00,VWS V14.01,2013-12-03 08:28:00,
2013-12-03 03:33:00,33.0,32.2,29.78,SE,135,1.0,5.0,97,0.00,,---,0.00,VWS V14.01,2013-12-03 08:33:00,
2013-12-03 03:38:00,34.0,33.2,29.78,SE,135,0.0,5.0,97,0.00,,---,0.00,VWS V14.01,2013-12-03 08:38:00,
2013-12-03 03:43:00,33.0,32.0,29.78,SE,135,0.0,5.0,96,0.00,,---,0.00,VWS V14.01,2013-12-03 08:43:00,
2013-12-03 03:48:00,34.0,33.2,29.78,SE,135,0.0,5.0,97,0.00,,---,0.00,VWS V14.01,2013-12-03 08:48:00,
2013-12-03 03:53:00,34.0,33.0,29.78,SE,135,0.0,5.0,96,0.00,,---,0.00,VWS V14.01,2013-12-03 08:53:00,
2013-12-03 03:58:00,34.0,33.0,29.78,SE,135,0.0,5.0,96,0.00,,---,0.00,VWS V14.01,2013-12-03 08:58:00,
2013-12-03 04:00:00,35.0,32.4,29.77,ESE,112,4.0,8.0,90,-99.99,,OVC060,0.00,VWS V14.01,2013-12-03 09:00:00,
2013-12-03 04:03:00,34.0,32.7,29.78,ESE,112,4.0,6.0,95,0.00,,---,0.00,VWS V14.01,2013-12-03 09:03:00,
2013-12-03 04:08:00,34.0,33.0,29.78,ESE,112,1.0,6.0,96,0.00,,---,0.00,VWS V14.01,2013-12-03 09:08:00,
2013-12-03 04:13:00,34.0,32.5,29.78,East,90,3.0,6.0,94,0.00,,---,0.00,VWS V14.01,2013-12-03 09:13:00,
2013-12-03 04:18:00,34.0,32.5,29.77,East,90,2.0,6.0,94,0.00,,---,0.00,VWS V14.01,2013-12-03 09:18:00,
2013-12-03 04:23:00,34.0,32.2,29.77,SE,135,0.0,6.0,93,0.00,,---,0.00,VWS V14.01,2013-12-03 09:23:00,
2013-12-03 04:28:00,35.0,33.2,29.77,ESE,112,1.0,6.0,93,0.00,,---,0.00,VWS V14.01,2013-12-03 09:28:00,
2013-12-03 04:33:00,34.0,31.9,29.77,ESE,112,4.0,6.0,92,0.00,,---,0.00,VWS V14.01,2013-12-03 09:33:00,
2013-12-03 04:38:00,35.0,32.9,29.77,East,90,3.0,6.0,92,0.00,,---,0.00,VWS V14.01,2013-12-03 09:38:00,
2013-12-03 04:43:00,35.0,32.6,29.77,East,90,3.0,6.0,91,0.00,,---,0.00,VWS V14.01,2013-12-03 09:43:00,
2013-12-03 04:48:00,35.0,32.6,29.77,ESE,112,4.0,7.0,91,0.00,,---,0.00,VWS V14.01,2013-12-03 09:48:00,
2013-12-03 04:53:00,35.0,32.4,29.77,East,90,3.0,7.0,90,0.00,,---,0.00,VWS V14.01,2013-12-03 09:53:00,
2013-12-03 04:58:00,35.0,32.4,29.77,ESE,112,1.0,8.0,90,0.00,,---,0.00,VWS V14.01,2013-12-03 09:58:00,
2013-12-03 05:00:00,35.0,32.6,29.79,ENE,67,3.0,6.0,91,-99.99,,OVC060,0.00,VWS V14.01,2013-12-03 10:00:00,
2013-12-03 05:03:00,35.0,32.4,29.77,East,90,1.0,6.0,90,0.00,,---,0.00,VWS V14.01,2013-12-03 10:03:00,
2013-12-03 05:08:00,35.0,32.4,29.77,East,90,5.0,6.0,90,0.00,,---,0.00,VWS V14.01,2013-12-03 10:08:00,
2013-12-03 05:13:00,34.0,31.6,29.77,ENE,67,0.0,6.0,91,0.00,,---,0.00,VWS V14.01,2013-12-03 10:13:00,
2013-12-03 05:18:00,34.0,31.6,29.78,SE,135,0.0,6.0,91,0.00,,---,0.00,VWS V14.01,2013-12-03 10:18:00,
2013-12-03 05:23:00,34.0,31.6,29.78,SE,135,2.0,6.0,91,0.00,,---,0.00,VWS V14.01,2013-12-03 10:23:00,
2013-12-03 05:28:00,34.0,31.6,29.78,East,90,2.0,6.0,91,0.00,,---,0.00,VWS V14.01,2013-12-03 10:28:00,
2013-12-03 05:33:00,34.0,31.6,29.78,East,90,2.0,6.0,91,0.00,,---,0.00,VWS V14.01,2013-12-03 10:33:00,
2013-12-03 05:38:00,34.0,31.6,29.79,East,90,0.0,6.0,91,0.00,,---,0.00,VWS V14.01,2013-12-03 10:38:00,
2013-12-03 05:43:00,34.0,31.6,29.79,East,90,2.0,6.0,91,0.00,,---,0.00,VWS V14.01,2013-12-03 10:43:00,
2013-12-03 05:48:00,35.0,32.6,29.79,ENE,67,2.0,6.0,91,0.00,,---,0.00,VWS V14.01,2013-12-03 10:48:00,
2013-12-03 05:53:00,35.0,32.6,29.79,ENE,67,3.0,6.0,91,0.00,,---,0.00,VWS V14.01,2013-12-03 10:53:00,
2013-12-03 05:58:00,35.0,32.6,29.79,ENE,67,2.0,6.0,91,0.00,,---,0.00,VWS V14.01,2013-12-03 10:58:00,
2013-12-03 06:00:00,35.0,32.1,29.78,ESE,112,1.0,6.0,89,-99.99,,OVC060,0.00,VWS V14.01,2013-12-03 11:00:00,
2013-12-03 06:03:00,35.0,32.6,29.79,ENE,67,4.0,4.0,91,0.00,,---,0.00,VWS V14.01,2013-12-03 11:03:00,
2013-12-03 06:08:00,35.0,32.6,29.79,ENE,67,3.0,5.0,91,0.00,,---,0.00,VWS V14.01,2013-12-03 11:08:00,
2013-12-03 06:13:00,35.0,32.4,29.79,ENE,67,2.0,6.0,90,0.00,,---,0.00,VWS V14.01,2013-12-03 11:13:00,
2013-12-03 06:18:00,35.0,32.4,29.79,ENE,67,5.0,6.0,90,0.00,,---,0.00,VWS V14.01,2013-12-03 11:18:00,
2013-12-03 06:23:00,35.0,32.4,29.79,ENE,67,4.0,6.0,90,0.00,,---,0.00,VWS V14.01,2013-12-03 11:23:00,
2013-12-03 06:28:00,35.0,32.4,29.79,East,90,3.0,6.0,90,0.00,,---,0.00,VWS V14.01,2013-12-03 11:28:00,
2013-12-03 06:33:00,35.0,32.4,29.79,East,90,1.0,6.0,90,0.00,,---,0.00,VWS V14.01,2013-12-03 11:33:00,
2013-12-03 06:38:00,35.0,32.1,29.78,East,90,5.0,6.0,89,0.00,,---,0.00,VWS V14.01,2013-12-03 11:38:00,
2013-12-03 06:43:00,35.0,32.1,29.78,East,90,3.0,6.0,89,0.00,,---,0.00,VWS V14.01,2013-12-03 11:43:00,
2013-12-03 06:48:00,35.0,32.1,29.78,East,90,3.0,6.0,89,0.00,,---,0.00,VWS V14.01,2013-12-03 11:48:00,
2013-12-03 06:53:00,35.0,32.1,29.78,East,90,1.0,6.0,89,0.00,,---,0.00,VWS V14.01,2013-12-03 11:53:00,
2013-12-03 06:58:00,35.0,32.1,29.78,East,90,5.0,6.0,89,0.00,,---,0.00,VWS V14.01,2013-12-03 11:58:00,
2013-12-03 07:00:00,35.0,31.2,29.79,East,90,4.0,6.0,86,-99.99,,OVC060,0.00,VWS V14.01,2013-12-03 12:00:00,
2013-12-03 07:03:00,35.0,31.8,29.78,East,90,2.0,5.0,88,0.00,,---,0.00,VWS V14.01,2013-12-03 12:03:00,
2013-12-03 07:08:00,35.0,31.8,29.78,East,90,5.0,5.0,88,0.00,,---,0.00,VWS V14.01,2013-12-03 12:08:00,
2013-12-03 07:13:00,35.0,31.8,29.78,SE,135,4.0,6.0,88,0.00,,---,0.00,VWS V14.01,2013-12-03 12:13:00,
2013-12-03 07:18:00,35.0,31.8,29.77,East,90,1.0,6.0,88,0.00,,---,0.00,VWS V14.01,2013-12-03 12:18:00,
2013-12-03 07:23:00,34.0,30.8,29.77,SE,135,2.0,6.0,88,0.00,,---,0.00,VWS V14.01,2013-12-03 12:23:00,
2013-12-03 07:28:00,34.0,30.8,29.78,East,90,1.0,6.0,88,0.00,,---,0.00,VWS V14.01,2013-12-03 12:28:00,
2013-12-03 07:33:00,34.0,30.8,29.78,East,90,0.0,6.0,88,0.00,,---,0.00,VWS V14.01,2013-12-03 12:33:00,
2013-12-03 07:39:00,34.0,30.8,29.78,East,90,2.0,6.0,88,0.00,,---,0.00,VWS V14.01,2013-12-03 12:39:00,
2013-12-03 07:44:00,35.0,31.5,29.78,East,90,2.0,6.0,87,0.00,,---,0.00,VWS V14.01,2013-12-03 12:44:00,
2013-12-03 07:49:00,35.0,31.5,29.78,East,90,4.0,6.0,87,0.00,,---,0.00,VWS V14.01,2013-12-03 12:49:00,
2013-12-03 07:54:00,35.0,31.2,29.78,East,90,3.0,6.0,86,0.00,,---,0.00,VWS V14.01,2013-12-03 12:54:00,
2013-12-03 07:59:00,35.0,31.2,29.79,East,90,4.0,6.0,86,0.00,,---,0.00,VWS V14.01,2013-12-03 12:59:00,
2013-12-03 08:00:00,37.0,31.1,29.80,East,90,4.0,8.0,79,-99.99,,OVC060,0.00,VWS V14.01,2013-12-03 13:00:00,
2013-12-03 08:04:00,35.0,31.0,29.79,East,90,0.0,6.0,85,0.00,,---,0.00,VWS V14.01,2013-12-03 13:04:00,
2013-12-03 08:09:00,35.0,31.0,29.79,East,90,3.0,6.0,85,0.00,,---,0.00,VWS V14.01,2013-12-03 13:09:00,
2013-12-03 08:14:00,35.0,30.7,29.79,ENE,67,0.0,6.0,84,0.00,,---,0.00,VWS V14.01,2013-12-03 13:14:00,
2013-12-03 08:19:00,35.0,30.7,29.80,NNE,22,2.0,6.0,84,0.00,,---,0.00,VWS V14.01,2013-12-03 13:19:00,
2013-12-03 08:24:00,36.0,31.6,29.80,NE,45,0.0,6.0,84,0.00,,---,0.00,VWS V14.01,2013-12-03 13:24:00,
2013-12-03 08:29:00,36.0,31.4,29.80,SE,135,4.0,6.0,83,0.00,,---,0.00,VWS V14.01,2013-12-03 13:29:00,
2013-12-03 08:34:00,36.0,31.4,29.80,East,90,3.0,6.0,83,0.00,,---,0.00,VWS V14.01,2013-12-03 13:34:00,
2013-12-03 08:39:00,36.0,30.8,29.80,ESE,112,4.0,7.0,81,0.00,,---,0.00,VWS V14.01,2013-12-03 13:39:00,
2013-12-03 08:44:00,36.0,30.4,29.80,East,90,5.0,8.0,80,0.00,,---,0.00,VWS V14.01,2013-12-03 13:44:00,
2013-12-03 08:49:00,37.0,31.1,29.79,East,90,5.0,8.0,79,0.00,,---,0.00,VWS V14.01,2013-12-03 13:49:00,
2013-12-03 08:54:00,37.0,31.1,29.79,East,90,5.0,8.0,79,0.00,,---,0.00,VWS V14.01,2013-12-03 13:54:00,
2013-12-03 08:59:00,37.0,31.1,29.80,East,90,3.0,8.0,79,0.00,,---,0.00,VWS V14.01,2013-12-03 13:59:00,
2013-12-03 09:00:00,38.0,31.1,29.81,East,90,3.0,8.0,76,-99.99,,OVC060,0.00,VWS V14.01,2013-12-03 14:00:00,
2013-12-03 09:04:00,37.0,31.1,29.80,NE,45,2.0,6.0,79,0.00,,---,0.00,VWS V14.01,2013-12-03 14:04:00,
2013-12-03 09:09:00,37.0,31.1,29.81,SE,135,1.0,6.0,79,0.00,,---,0.00,VWS V14.01,2013-12-03 14:09:00,
2013-12-03 09:14:00,37.0,31.1,29.81,SE,135,0.0,6.0,79,0.00,,---,0.00,VWS V14.01,2013-12-03 14:14:00,
2013-12-03 09:19:00,37.0,30.8,29.80,ENE,67,3.0,6.0,78,0.00,,---,0.00,VWS V14.01,2013-12-03 14:19:00,
2013-12-03 09:24:00,37.0,30.8,29.80,SE,135,2.0,8.0,78,0.00,,---,0.00,VWS V14.01,2013-12-03 14:24:00,
2013-12-03 09:29:00,38.0,31.1,29.80,SE,135,5.0,8.0,76,0.00,,---,0.00,VWS V14.01,2013-12-03 14:29:00,
2013-12-03 09:34:00,38.0,31.1,29.80,East,90,2.0,8.0,76,0.00,,---,0.00,VWS V14.01,2013-12-03 14:34:00,
2013-12-03 09:39:00,38.0,30.8,29.81,ESE,112,2.0,8.0,75,0.00,,---,0.00,VWS V14.01,2013-12-03 14:39:00,
2013-12-03 09:44:00,38.0,31.1,29.81,ESE,112,5.0,8.0,76,0.00,,---,0.00,VWS V14.01,2013-12-03 14:44:00,
2013-12-03 09:49:00,38.0,31.1,29.81,East,90,5.0,8.0,76,0.00,,---,0.00,VWS V14.01,2013-12-03 14:49:00,
2013-12-03 09:54:00,38.0,31.1,29.81,ESE,112,5.0,8.0,76,0.00,,---,0.00,VWS V14.01,2013-12-03 14:54:00,
2013-12-03 09:59:00,38.0,31.1,29.81,ESE,112,1.0,8.0,76,0.00,,---,0.00,VWS V14.01,2013-12-03 14:59:00,
2013-12-03 10:00:00,40.0,33.4,29.81,ESE,112,2.0,6.0,77,-99.99,,OVC060,0.00,VWS V14.01,2013-12-03 15:00:00,
2013-12-03 10:04:00,39.0,32.1,29.81,SE,135,5.0,5.0,76,0.00,,---,0.00,VWS V14.01,2013-12-03 15:04:00,
2013-12-03 10:09:00,39.0,32.1,29.81,NE,45,1.0,5.0,76,0.00,,---,0.00,VWS V14.01,2013-12-03 15:09:00,
2013-12-03 10:14:00,39.0,32.1,29.81,East,90,4.0,6.0,76,0.00,,---,0.00,VWS V14.01,2013-12-03 15:14:00,
2013-12-03 10:19:00,39.0,32.1,29.82,ESE,112,0.0,6.0,76,0.00,,---,0.00,VWS V14.01,2013-12-03 15:19:00,
2013-12-03 10:24:00,39.0,32.1,29.82,ESE,112,1.0,6.0,76,0.00,,---,0.00,VWS V14.01,2013-12-03 15:24:00,
2013-12-03 10:29:00,39.0,32.1,29.82,ENE,67,3.0,6.0,76,0.00,,---,0.00,VWS V14.01,2013-12-03 15:29:00,
2013-12-03 10:34:00,39.0,32.1,29.82,East,90,1.0,6.0,76,0.00,,---,0.00,VWS V14.01,2013-12-03 15:34:00,
2013-12-03 10:39:00,39.0,32.1,29.81,ESE,112,2.0,6.0,76,0.00,,---,0.00,VWS V14.01,2013-12-03 15:39:00,
2013-12-03 10:44:00,40.0,33.1,29.81,East,90,3.0,6.0,76,0.00,,---,0.00,VWS V14.01,2013-12-03 15:44:00,
2013-12-03 10:49:00,40.0,33.1,29.81,East,90,2.0,6.0,76,0.00,,---,0.00,VWS V14.01,2013-12-03 15:49:00,
2013-12-03 10:54:00,40.0,33.1,29.81,East,90,2.0,6.0,76,0.00,,---,0.00,VWS V14.01,2013-12-03 15:54:00,
2013-12-03 10:59:00,40.0,33.4,29.81,ESE,112,2.0,6.0,77,0.00,,---,0.00,VWS V14.01,2013-12-03 15:59:00,
2013-12-03 11:00:00,43.0,36.3,29.79,SE,135,0.0,6.0,77,-99.99,,OVC060,0.00,VWS V14.01,2013-12-03 16:00:00,
2013-12-03 11:04:00,40.0,33.1,29.81,SE,135,4.0,6.0,76,0.00,,---,0.00,VWS V14.01,2013-12-03 16:04:00,
2013-12-03 11:09:00,41.0,34.3,29.81,SE,135,1.0,6.0,77,0.00,,---,0.00,VWS V14.01,2013-12-03 16:09:00,
2013-12-03 11:14:00,41.0,34.3,29.81,SE,135,1.0,6.0,77,0.00,,---,0.00,VWS V14.01,2013-12-03 16:14:00,
2013-12-03 11:19:00,41.0,34.3,29.81,SE,135,4.0,6.0,77,0.00,,---,0.00,VWS V14.01,2013-12-03 16:19:00,
2013-12-03 11:24:00,41.0,34.3,29.81,SE,135,3.0,6.0,77,0.00,,---,0.00,VWS V14.01,2013-12-03 16:24:00,
2013-12-03 11:29:00,41.0,34.3,29.80,SSE,157,4.0,6.0,77,0.00,,---,0.00,VWS V14.01,2013-12-03 16:29:00,
2013-12-03 11:34:00,42.0,35.0,29.80,SE,135,2.0,6.0,76,0.00,,---,0.00,VWS V14.01,2013-12-03 16:34:00,
2013-12-03 11:39:00,42.0,35.3,29.80,South,180,4.0,6.0,77,0.00,,---,0.00,VWS V14.01,2013-12-03 16:39:00,
2013-12-03 11:44:00,42.0,35.0,29.80,SSE,157,3.0,6.0,76,0.00,,---,0.00,VWS V14.01,2013-12-03 16:44:00,
2013-12-03 11:50:00,42.0,35.0,29.80,SSE,157,3.0,6.0,76,0.00,,---,0.00,VWS V14.01,2013-12-03 16:50:00,
2013-12-03 11:55:00,43.0,36.3,29.80,East,90,4.0,6.0,77,0.00,,---,0.00,VWS V14.01,2013-12-03 16:55:00,
2013-12-03 12:00:00,43.0,36.3,29.79,SE,135,0.0,6.0,77,0.00,,---,0.00,VWS V14.01,2013-12-03 17:00:00,
2013-12-03 12:05:00,44.0,36.9,29.79,South,180,5.0,6.0,76,0.00,,---,0.00,VWS V14.01,2013-12-03 17:05:00,
2013-12-03 12:10:00,44.0,36.6,29.79,South,180,3.0,6.0,75,0.00,,---,0.00,VWS V14.01,2013-12-03 17:10:00,
2013-12-03 12:15:00,45.0,36.9,29.79,SE,135,3.0,6.0,73,0.00,,---,0.00,VWS V14.01,2013-12-03 17:15:00,
2013-12-03 12:20:00,46.0,38.2,29.80,SE,135,0.0,6.0,74,0.00,,---,0.00,VWS V14.01,2013-12-03 17:20:00,
2013-12-03 12:25:00,46.0,37.5,29.80,East,90,5.0,6.0,72,0.00,,---,0.00,VWS V14.01,2013-12-03 17:25:00,
2013-12-03 12:30:00,45.0,36.5,29.81,NNE,22,0.0,6.0,72,0.00,,---,0.00,VWS V14.01,2013-12-03 17:30:00,
2013-12-03 12:35:00,43.0,36.9,29.81,NNW,337,5.0,6.0,79,0.00,,---,0.00,VWS V14.01,2013-12-03 17:35:00,
2013-12-03 12:40:00,41.0,37.7,29.80,North,360,5.0,7.0,88,0.00,,---,0.00,VWS V14.01,2013-12-03 17:40:00,
2013-12-03 12:45:00,40.0,38.4,29.80,North,360,10.0,11.0,94,0.00,,---,0.00,VWS V14.01,2013-12-03 17:45:00,
2013-12-03 12:50:00,40.0,39.0,29.80,North,360,10.0,12.0,96,0.00,,---,0.00,VWS V14.01,2013-12-03 17:50:00,
2013-12-03 12:55:00,39.0,38.0,29.80,North,360,11.0,13.0,96,0.00,,---,0.00,VWS V14.01,2013-12-03 17:55:00,
2013-12-03 13:00:00,39.0,38.0,29.80,NNE,22,8.0,10.0,96,0.00,,---,0.00,VWS V14.01,2013-12-03 18:00:00,
2013-12-03 13:05:00,40.0,38.7,29.80,NNE,22,6.0,10.0,95,0.00,,---,0.00,VWS V14.01,2013-12-03 18:05:00,
2013-12-03 13:10:00,40.0,39.0,29.79,NE,45,9.0,10.0,96,0.00,,---,0.00,VWS V14.01,2013-12-03 18:10:00,
2013-12-03 13:15:00,40.0,39.0,29.79,NE,45,8.0,10.0,96,0.00,,---,0.00,VWS V14.01,2013-12-03 18:15:00,
2013-12-03 13:20:00,40.0,39.2,29.79,NNE,22,7.0,10.0,97,0.00,,---,0.00,VWS V14.01,2013-12-03 18:20:00,
2013-12-03 13:25:00,40.0,39.0,29.79,NE,45,7.0,10.0,96,0.00,,---,0.00,VWS V14.01,2013-12-03 18:25:00,
2013-12-03 13:30:00,40.0,39.2,29.80,NNE,22,6.0,10.0,97,0.00,,---,0.00,VWS V14.01,2013-12-03 18:30:00,
2013-12-03 13:35:00,39.0,38.2,29.80,NE,45,9.0,11.0,97,0.00,,---,0.00,VWS V14.01,2013-12-03 18:35:00,
2013-12-03 13:40:00,39.0,38.2,29.79,NE,45,7.0,11.0,97,0.00,,---,0.00,VWS V14.01,2013-12-03 18:40:00,
2013-12-03 13:45:00,39.0,38.5,29.79,NE,45,8.0,11.0,98,0.00,,---,0.00,VWS V14.01,2013-12-03 18:45:00,
2013-12-03 13:50:00,39.0,38.5,29.79,NE,45,11.0,12.0,98,0.00,,---,0.00,VWS V14.01,2013-12-03 18:50:00,
2013-12-03 13:55:00,39.0,38.2,29.79,ENE,67,8.0,12.0,97,0.00,,---,0.00,VWS V14.01,2013-12-03 18:55:00,
2013-12-03 14:00:00,40.0,39.0,29.79,NE,45,7.0,10.0,96,0.00,,---,0.00,VWS V14.01,2013-12-03 19:00:00,
2013-12-03 14:05:00,40.0,39.2,29.79,NE,45,12.0,13.0,97,0.00,,---,0.00,VWS V14.01,2013-12-03 19:05:00,
2013-12-03 14:10:00,39.0,38.2,29.79,NE,45,12.0,14.0,97,0.00,,---,0.00,VWS V14.01,2013-12-03 19:10:00,
2013-12-03 14:15:00,40.0,39.2,29.79,NE,45,8.0,14.0,97,0.00,,---,0.00,VWS V14.01,2013-12-03 19:15:00,
2013-12-03 14:20:00,40.0,38.7,29.79,NE,45,6.0,14.0,95,0.00,,---,0.00,VWS V14.01,2013-12-03 19:20:00,
2013-12-03 14:25:00,41.0,39.1,29.79,ENE,67,5.0,14.0,93,0.00,,---,0.00,VWS V14.01,2013-12-03 19:25:00,
2013-12-03 14:30:00,41.0,38.9,29.79,NE,45,5.0,14.0,92,0.00,,---,0.00,VWS V14.01,2013-12-03 19:30:00,
2013-12-03 14:35:00,41.0,38.6,29.79,NE,45,6.0,14.0,91,0.00,,---,0.00,VWS V14.01,2013-12-03 19:35:00,
2013-12-03 14:40:00,41.0,38.9,29.79,ENE,67,5.0,14.0,92,0.00,,---,0.00,VWS V14.01,2013-12-03 19:40:00,
2013-12-03 14:45:00,41.0,38.6,29.79,NE,45,5.0,14.0,91,0.00,,---,0.00,VWS V14.01,2013-12-03 19:45:00,
2013-12-03 14:50:00,41.0,38.9,29.79,NE,45,5.0,14.0,92,0.00,,---,0.00,VWS V14.01,2013-12-03 19:50:00,
2013-12-03 14:55:00,42.0,39.6,29.79,NE,45,4.0,14.0,91,0.00,,---,0.00,VWS V14.01,2013-12-03 19:55:00,
2013-12-03 15:00:00,42.0,39.6,29.78,NE,45,2.0,2.0,91,0.00,,---,0.00,VWS V14.01,2013-12-03 20:00:00,
2013-12-03 15:05:00,43.0,40.3,29.78,NE,45,1.0,4.0,90,0.00,,---,0.00,VWS V14.01,2013-12-03 20:05:00,
2013-12-03 15:10:00,44.0,40.4,29.78,NE,45,3.0,5.0,87,0.00,,---,0.00,VWS V14.01,2013-12-03 20:10:00,
2013-12-03 15:15:00,44.0,40.1,29.78,NE,45,3.0,5.0,86,0.00,,---,0.00,VWS V14.01,2013-12-03 20:15:00,
2013-12-03 15:20:00,43.0,40.3,29.78,NE,45,4.0,7.0,90,0.00,,---,0.00,VWS V14.01,2013-12-03 20:20:00,
2013-12-03 15:25:00,42.0,40.1,29.78,NE,45,6.0,7.0,93,0.00,,---,0.00,VWS V14.01,2013-12-03 20:25:00,
2013-12-03 15:30:00,41.0,39.7,29.78,NE,45,6.0,7.0,95,0.00,,---,0.00,VWS V14.01,2013-12-03 20:30:00,
2013-12-03 15:35:00,42.0,40.9,29.78,NE,45,4.0,7.0,96,0.00,,---,0.00,VWS V14.01,2013-12-03 20:35:00,
2013-12-03 15:40:00,43.0,41.7,29.77,SE,135,5.0,7.0,95,0.00,,---,0.00,VWS V14.01,2013-12-03 20:40:00,
2013-12-03 15:45:00,45.0,42.5,29.77,SE,135,2.0,7.0,91,0.00,,---,0.00,VWS V14.01,2013-12-03 20:45:00,
2013-12-03 15:50:00,47.0,42.1,29.78,South,180,2.0,7.0,83,0.00,,---,0.00,VWS V14.01,2013-12-03 20:50:00,
2013-12-03 15:55:00,47.0,41.5,29.78,SE,135,1.0,7.0,81,0.00,,---,0.00,VWS V14.01,2013-12-03 20:55:00,
2013-12-03 16:00:00,47.0,41.5,29.77,East,90,3.0,3.0,81,0.00,,---,0.00,VWS V14.01,2013-12-03 21:00:00,
2013-12-03 16:05:00,47.0,41.2,29.77,ESE,112,2.0,5.0,80,0.00,,---,0.00,VWS V14.01,2013-12-03 21:05:00,
2013-12-03 16:10:00,47.0,41.2,29.77,SE,135,0.0,5.0,80,0.00,,---,0.00,VWS V14.01,2013-12-03 21:10:00,
2013-12-03 16:15:00,47.0,41.2,29.77,SE,135,5.0,6.0,80,0.00,,---,0.00,VWS V14.01,2013-12-03 21:15:00,
2013-12-03 16:20:00,48.0,42.1,29.77,ESE,112,5.0,6.0,80,0.00,,---,0.00,VWS V14.01,2013-12-03 21:20:00,
2013-12-03 16:26:00,48.0,42.1,29.77,SE,135,3.0,9.0,80,0.00,,---,0.00,VWS V14.01,2013-12-03 21:26:00,
2013-12-03 16:31:00,48.0,42.1,29.77,SE,135,6.0,9.0,80,0.00,,---,0.00,VWS V14.01,2013-12-03 21:31:00,
2013-12-03 16:36:00,48.0,42.1,29.77,SSE,157,1.0,9.0,80,0.00,,---,0.00,VWS V14.01,2013-12-03 21:36:00,
2013-12-03 16:41:00,47.0,40.8,29.77,SE,135,3.0,9.0,79,0.00,,---,0.00,VWS V14.01,2013-12-03 21:41:00,
2013-12-03 16:46:00,47.0,40.8,29.77,SSE,157,2.0,9.0,79,0.00,,---,0.00,VWS V14.01,2013-12-03 21:46:00,
2013-12-03 16:51:00,47.0,41.2,29.78,South,180,2.0,9.0,80,0.00,,---,0.00,VWS V14.01,2013-12-03 21:51:00,
2013-12-03 16:56:00,47.0,41.2,29.78,ESE,112,1.0,9.0,80,0.00,,---,0.00,VWS V14.01,2013-12-03 21:56:00,
2013-12-03 17:00:00,46.0,42.0,29.79,ENE,67,3.0,7.0,86,-99.99,,OVC060,0.00,VWS V14.01,2013-12-03 22:00:00,
2013-12-03 17:01:00,47.0,41.5,29.78,East,90,0.0,1.0,81,0.00,,---,0.00,VWS V14.01,2013-12-03 22:01:00,
2013-12-03 17:06:00,47.0,41.5,29.78,ESE,112,1.0,5.0,81,0.00,,---,0.00,VWS V14.01,2013-12-03 22:06:00,
2013-12-03 17:11:00,47.0,41.5,29.79,NNE,22,3.0,5.0,81,0.00,,---,0.00,VWS V14.01,2013-12-03 22:11:00,
2013-12-03 17:16:00,46.0,40.8,29.79,NE,45,4.0,5.0,82,0.00,,---,0.00,VWS V14.01,2013-12-03 22:16:00,
2013-12-03 17:21:00,46.0,40.8,29.79,NE,45,3.0,5.0,82,0.00,,---,0.00,VWS V14.01,2013-12-03 22:21:00,
2013-12-03 17:26:00,46.0,40.8,29.79,NE,45,4.0,5.0,82,0.00,,---,0.00,VWS V14.01,2013-12-03 22:26:00,
2013-12-03 17:31:00,43.0,40.3,29.79,NE,45,5.0,7.0,90,0.00,,---,0.00,VWS V14.01,2013-12-03 22:31:00,
2013-12-03 17:36:00,42.0,40.1,29.79,NE,45,5.0,7.0,93,0.00,,---,0.00,VWS V14.01,2013-12-03 22:36:00,
2013-12-03 17:41:00,44.0,42.1,29.79,NE,45,3.0,7.0,93,0.00,,---,0.00,VWS V14.01,2013-12-03 22:41:00,
2013-12-03 17:46:00,45.0,42.2,29.79,NE,45,2.0,7.0,90,0.00,,---,0.00,VWS V14.01,2013-12-03 22:46:00,
2013-12-03 17:51:00,45.0,41.7,29.79,NE,45,2.0,7.0,88,0.00,,---,0.00,VWS V14.01,2013-12-03 22:51:00,
2013-12-03 17:56:00,46.0,42.3,29.79,ENE,67,4.0,7.0,87,0.00,,---,0.00,VWS V14.01,2013-12-03 22:56:00,
2013-12-03 18:00:00,44.0,40.4,29.80,NE,45,4.0,5.0,87,-99.99,,OVC060,0.00,VWS V14.01,2013-12-03 23:00:00,
2013-12-03 18:01:00,46.0,42.0,29.79,ENE,67,3.0,4.0,86,0.00,,---,0.00,VWS V14.01,2013-12-03 23:01:00,
2013-12-03 18:06:00,46.0,41.8,29.79,NE,45,2.0,5.0,85,0.00,,---,0.00,VWS V14.01,2013-12-03 23:06:00,
2013-12-03 18:11:00,46.0,41.4,29.79,East,90,2.0,5.0,84,0.00,,---,0.00,VWS V14.01,2013-12-03 23:11:00,
2013-12-03 18:16:00,46.0,41.4,29.79,East,90,1.0,5.0,84,0.00,,---,0.00,VWS V14.01,2013-12-03 23:16:00,
2013-12-03 18:21:00,46.0,41.4,29.80,East,90,3.0,5.0,84,0.00,,---,0.00,VWS V14.01,2013-12-03 23:21:00,
2013-12-03 18:26:00,46.0,41.4,29.80,East,90,2.0,5.0,84,0.00,,---,0.00,VWS V14.01,2013-12-03 23:26:00,
2013-12-03 18:31:00,46.0,41.4,29.79,ENE,67,2.0,5.0,84,0.00,,---,0.00,VWS V14.01,2013-12-03 23:31:00,
2013-12-03 18:36:00,46.0,41.4,29.79,NE,45,2.0,5.0,84,0.00,,---,0.00,VWS V14.01,2013-12-03 23:36:00,
2013-12-03 18:41:00,46.0,41.8,29.79,NE,45,4.0,5.0,85,0.00,,---,0.00,VWS V14.01,2013-12-03 23:41:00,
2013-12-03 18:46:00,46.0,41.8,29.79,NE,45,2.0,5.0,85,0.00,,---,0.00,VWS V14.01,2013-12-03 23:46:00,
2013-12-03 18:51:00,46.0,41.8,29.80,NE,45,4.0,5.0,85,0.00,,---,0.00,VWS V14.01,2013-12-03 23:51:00,
2013-12-03 18:56:00,45.0,41.1,29.80,NE,45,4.0,5.0,86,0.00,,---,0.00,VWS V14.01,2013-12-03 23:56:00,
2013-12-03 19:00:00,45.0,41.4,29.79,SE,135,6.0,8.0,87,-99.99,,OVC060,0.00,VWS V14.01,2013-12-04 00:00:00,
2013-12-03 19:01:00,44.0,40.4,29.80,NE,45,4.0,5.0,87,0.00,,---,0.00,VWS V14.01,2013-12-04 00:01:00,
2013-12-03 19:06:00,44.0,41.3,29.80,NE,45,5.0,6.0,90,0.00,,---,0.00,VWS V14.01,2013-12-04 00:06:00,
2013-12-03 19:11:00,44.0,41.5,29.80,NE,45,3.0,6.0,91,0.00,,---,0.00,VWS V14.01,2013-12-04 00:11:00,
2013-12-03 19:16:00,44.0,41.3,29.80,NE,45,4.0,6.0,90,0.00,,---,0.00,VWS V14.01,2013-12-04 00:16:00,
2013-12-03 19:21:00,44.0,41.3,29.80,NE,45,2.0,6.0,90,0.00,,---,0.00,VWS V14.01,2013-12-04 00:21:00,
2013-12-03 19:26:00,44.0,41.0,29.80,NE,45,2.0,6.0,89,0.00,,---,0.00,VWS V14.01,2013-12-04 00:26:00,
2013-12-03 19:31:00,45.0,42.0,29.80,NE,45,1.0,6.0,89,0.00,,---,0.00,VWS V14.01,2013-12-04 00:31:00,
2013-12-03 19:36:00,45.0,42.0,29.80,NE,45,1.0,6.0,89,0.00,,---,0.00,VWS V14.01,2013-12-04 00:36:00,
2013-12-03 19:41:00,45.0,42.0,29.80,NE,45,2.0,6.0,89,0.00,,---,0.00,VWS V14.01,2013-12-04 00:41:00,
2013-12-03 19:46:00,45.0,41.7,29.80,SE,135,3.0,6.0,88,0.00,,---,0.00,VWS V14.01,2013-12-04 00:46:00,
2013-12-03 19:51:00,45.0,41.7,29.79,SE,135,1.0,6.0,88,0.00,,---,0.00,VWS V14.01,2013-12-04 00:51:00,
2013-12-03 19:56:00,45.0,41.4,29.79,SE,135,2.0,8.0,87,0.00,,---,0.00,VWS V14.01,2013-12-04 00:56:00,
2013-12-03 20:00:00,46.0,42.0,29.78,SE,135,3.0,9.0,86,-99.99,,OVC060,0.00,VWS V14.01,2013-12-04 01:00:00,
2013-12-03 20:02:00,45.0,41.4,29.79,SE,135,3.0,6.0,87,0.00,,---,0.00,VWS V14.01,2013-12-04 01:02:00,
2013-12-03 20:07:00,45.0,41.4,29.79,SE,135,4.0,6.0,87,0.00,,---,0.00,VWS V14.01,2013-12-04 01:07:00,
2013-12-03 20:12:00,45.0,41.4,29.79,SSE,157,3.0,6.0,87,0.00,,---,0.00,VWS V14.01,2013-12-04 01:12:00,
2013-12-03 20:17:00,45.0,41.4,29.79,SE,135,4.0,7.0,87,0.00,,---,0.00,VWS V14.01,2013-12-04 01:17:00,
2013-12-03 20:22:00,45.0,41.4,29.79,South,180,6.0,7.0,87,0.00,,---,0.00,VWS V14.01,2013-12-04 01:22:00,
2013-12-03 20:27:00,45.0,41.4,29.79,SSE,157,3.0,7.0,87,0.00,,---,0.00,VWS V14.01,2013-12-04 01:27:00,
2013-12-03 20:32:00,46.0,42.3,29.79,SE,135,3.0,7.0,87,0.00,,---,0.00,VWS V14.01,2013-12-04 01:32:00,
2013-12-03 20:37:00,46.0,42.0,29.79,SE,135,9.0,9.0,86,0.00,,---,0.00,VWS V14.01,2013-12-04 01:37:00,
2013-12-03 20:42:00,46.0,42.0,29.79,SE,135,5.0,9.0,86,0.00,,---,0.00,VWS V14.01,2013-12-04 01:42:00,
2013-12-03 20:47:00,46.0,42.0,29.79,East,90,5.0,9.0,86,0.00,,---,0.00,VWS V14.01,2013-12-04 01:47:00,
2013-12-03 20:52:00,46.0,42.0,29.79,SE,135,5.0,9.0,86,0.00,,---,0.00,VWS V14.01,2013-12-04 01:52:00,
2013-12-03 20:57:00,46.0,42.0,29.79,SSE,157,5.0,9.0,86,0.00,,---,0.00,VWS V14.01,2013-12-04 01:57:00,
2013-12-03 21:00:00,46.0,41.8,29.77,SE,135,4.0,10.0,85,-99.99,,OVC060,0.00,VWS V14.01,2013-12-04 02:00:00,
2013-12-03 21:02:00,46.0,42.0,29.78,SE,135,4.0,6.0,86,0.00,,---,0.00,VWS V14.01,2013-12-04 02:02:00,
2013-12-03 21:07:00,46.0,41.8,29.78,SE,135,6.0,10.0,85,0.00,,---,0.00,VWS V14.01,2013-12-04 02:07:00,
2013-12-03 21:12:00,46.0,42.0,29.78,SE,135,5.0,10.0,86,0.00,,---,0.00,VWS V14.01,2013-12-04 02:12:00,
2013-12-03 21:17:00,46.0,42.0,29.78,South,180,6.0,10.0,86,0.00,,---,0.00,VWS V14.01,2013-12-04 02:17:00,
2013-12-03 21:22:00,46.0,42.0,29.77,SE,135,8.0,10.0,86,0.00,,---,0.00,VWS V14.01,2013-12-04 02:22:00,
2013-12-03 21:27:00,46.0,42.0,29.77,SE,135,5.0,10.0,86,0.00,,---,0.00,VWS V14.01,2013-12-04 02:27:00,
2013-12-03 21:32:00,46.0,41.8,29.77,SE,135,5.0,10.0,85,0.00,,---,0.00,VWS V14.01,2013-12-04 02:32:00,
2013-12-03 21:37:00,46.0,41.8,29.77,SE,135,3.0,10.0,85,0.00,,---,0.00,VWS V14.01,2013-12-04 02:37:00,
2013-12-03 21:42:00,46.0,41.8,29.77,SSE,157,5.0,10.0,85,0.00,,---,0.00,VWS V14.01,2013-12-04 02:42:00,
2013-12-03 21:47:00,46.0,41.8,29.77,SE,135,3.0,10.0,85,0.00,,---,0.00,VWS V14.01,2013-12-04 02:47:00,
2013-12-03 21:52:00,46.0,42.0,29.77,SE,135,4.0,10.0,86,0.00,,---,0.00,VWS V14.01,2013-12-04 02:52:00,
2013-12-03 21:57:00,46.0,41.8,29.77,SE,135,5.0,10.0,85,0.00,,---,0.00,VWS V14.01,2013-12-04 02:57:00,
2013-12-03 22:00:00,46.0,41.8,29.78,SSE,157,4.0,10.0,85,-99.99,,OVC060,0.00,VWS V14.01,2013-12-04 03:00:00,
2013-12-03 22:02:00,47.0,42.4,29.77,ESE,112,5.0,9.0,84,0.00,,---,0.00,VWS V14.01,2013-12-04 03:02:00,
2013-12-03 22:07:00,47.0,42.4,29.77,ESE,112,5.0,9.0,84,0.00,,---,0.00,VWS V14.01,2013-12-04 03:07:00,
2013-12-03 22:12:00,47.0,42.4,29.77,ESE,112,4.0,10.0,84,0.00,,---,0.00,VWS V14.01,2013-12-04 03:12:00,
2013-12-03 22:17:00,47.0,42.4,29.77,SSE,157,3.0,10.0,84,0.00,,---,0.00,VWS V14.01,2013-12-04 03:17:00,
2013-12-03 22:23:00,47.0,42.4,29.77,SE,135,3.0,10.0,84,0.00,,---,0.00,VWS V14.01,2013-12-04 03:23:00,
2013-12-03 22:28:00,47.0,42.4,29.78,SSE,157,4.0,10.0,84,0.00,,---,0.00,VWS V14.01,2013-12-04 03:28:00,
2013-12-03 22:33:00,46.0,41.4,29.78,SSE,157,2.0,10.0,84,0.00,,---,0.00,VWS V14.01,2013-12-04 03:33:00,
2013-12-03 22:38:00,46.0,41.4,29.78,SSE,157,0.0,10.0,84,0.00,,---,0.00,VWS V14.01,2013-12-04 03:38:00,
2013-12-03 22:43:00,46.0,41.8,29.78,SSE,157,3.0,10.0,85,0.00,,---,0.00,VWS V14.01,2013-12-04 03:43:00,
2013-12-03 22:48:00,46.0,42.0,29.78,SE,135,5.0,10.0,86,0.00,,---,0.00,VWS V14.01,2013-12-04 03:48:00,
2013-12-03 22:53:00,46.0,42.0,29.78,SE,135,5.0,10.0,86,0.00,,---,0.00,VWS V14.01,2013-12-04 03:53:00,
2013-12-03 22:58:00,46.0,42.0,29.78,SE,135,1.0,10.0,86,0.00,,---,0.00,VWS V14.01,2013-12-04 03:58:00,
2013-12-03 23:00:00,46.0,42.0,29.79,South,180,4.0,9.0,86,-99.99,,OVC060,0.00,VWS V14.01,2013-12-04 04:00:00,
2013-12-03 23:03:00,46.0,41.8,29.78,SE,135,5.0,6.0,85,0.00,,---,0.00,VWS V14.01,2013-12-04 04:03:00,
2013-12-03 23:08:00,47.0,42.7,29.78,SE,135,7.0,8.0,85,0.00,,---,0.00,VWS V14.01,2013-12-04 04:08:00,
2013-12-03 23:13:00,46.0,41.8,29.78,SE,135,1.0,8.0,85,0.00,,---,0.00,VWS V14.01,2013-12-04 04:13:00,
2013-12-03 23:18:00,46.0,41.8,29.78,SE,135,1.0,8.0,85,0.00,,---,0.00,VWS V14.01,2013-12-04 04:18:00,
2013-12-03 23:23:00,46.0,41.8,29.78,SE,135,0.0,8.0,85,0.00,,---,0.00,VWS V14.01,2013-12-04 04:23:00,
2013-12-03 23:28:00,46.0,42.0,29.78,SE,135,1.0,8.0,86,0.00,,---,0.00,VWS V14.01,2013-12-04 04:28:00,
2013-12-03 23:33:00,46.0,42.0,29.78,SE,135,2.0,8.0,86,0.00,,---,0.00,VWS V14.01,2013-12-04 04:33:00,
2013-12-03 23:38:00,46.0,42.0,29.79,SSE,157,4.0,8.0,86,0.00,,---,0.00,VWS V14.01,2013-12-04 04:38:00,
2013-12-03 23:43:00,46.0,42.0,29.79,South,180,4.0,8.0,86,0.00,,---,0.00,VWS V14.01,2013-12-04 04:43:00,
2013-12-03 23:48:00,46.0,42.0,29.79,SE,135,3.0,8.0,86,0.00,,---,0.00,VWS V14.01,2013-12-04 04:48:00,
2013-12-03 23:53:00,46.0,42.0,29.79,SSE,157,4.0,8.0,86,0.00,,---,0.00,VWS V14.01,2013-12-04 04:53:00,
2013-12-03 23:58:00,47.0,43.0,29.79,South,180,3.0,9.0,86,0.00,,---,0.00,VWS V14.01,2013-12-04 04:58:00,